• In Czech Republic
  • List of Countries
  • For 7 days
  • Water Temperature
  • Satellite Maps
  • Weather Map
  • Weather Widgets
  • user-avatar
    Login

    Hourly Weather Ghazni

    Today, 22 August, Tuesday

    Time Temperature Precipitation Wind Pressure Humidity
    00:00 +24°C° 0 mm 3 mps 587 mmHg 25%
    01:00 +22°C° 0 mm 3 mps 586 mmHg 31%
    02:00 +23°C° 0 mm 2 mps 586 mmHg 36%
    03:00 +21°C° 0 mm 2 mps 586 mmHg 41%
    04:00 +20°C° 0 mm 2 mps 586 mmHg 45%
    05:00 +21°C° 0 mm 1 mps 585 mmHg 49%
    06:00 +21°C° 0 mm 1 mps 586 mmHg 47%
    07:00 +22°C° 0 mm 1 mps 586 mmHg 46%
    08:00 +23°C° 0 mm 1 mps 587 mmHg 44%
    09:00 +24°C° 0 mm 1 mps 587 mmHg 37%
    10:00 +25°C° 0 mm 2 mps 588 mmHg 31%
    11:00 +27°C° 0 mm 2 mps 588 mmHg 25%
    12:00 +28°C° 0 mm 2 mps 588 mmHg 22%
    13:00 +29°C° 0 mm 2 mps 588 mmHg 18%
    14:00 +30°C° 0 mm 3 mps 588 mmHg 15%
    15:00 +31°C° 0 mm 3 mps 588 mmHg 13%
    16:00 +32°C° 0 mm 4 mps 588 mmHg 12%
    17:00 +32°C° 0 mm 4 mps 588 mmHg 10%
    18:00 +30°C° 0 mm 5 mps 588 mmHg 11%
    19:00 +29°C° 0 mm 5 mps 588 mmHg 11%
    20:00 +28°C° 0 mm 5 mps 587 mmHg 11%
    21:00 +27°C° 0 mm 4 mps 587 mmHg 13%
    22:00 +26°C° 0 mm 4 mps 587 mmHg 15%
    23:00 +25°C° 0 mm 3 mps 587 mmHg 17%

    Tomorrow, 23 August, Wednesday

    Time Temperature Precipitation Wind Pressure Humidity
    00:00 +25°C° 0 mm 3 mps 587 mmHg 20%
    01:00 +24°C° 0 mm 2 mps 587 mmHg 24%
    02:00 +23°C° 0 mm 2 mps 587 mmHg 28%
    03:00 +21°C° 0 mm 2 mps 586 mmHg 31%
    04:00 +21°C° 0 mm 2 mps 586 mmHg 34%
    05:00 +20°C° 0 mm 2 mps 586 mmHg 37%
    06:00 +22°C° 0 mm 1 mps 587 mmHg 36%
    07:00 +23°C° 0 mm 1 mps 587 mmHg 35%
    08:00 +23°C° 0 mm 1 mps 588 mmHg 34%
    09:00 +25°C° 0 mm 1 mps 588 mmHg 30%
    10:00 +26°C° 0 mm 1 mps 589 mmHg 25%
    11:00 +27°C° 0 mm 1 mps 589 mmHg 21%
    12:00 +28°C° 0 mm 2 mps 589 mmHg 18%
    13:00 +30°C° 0 mm 3 mps 589 mmHg 15%
    14:00 +31°C° 0 mm 3 mps 589 mmHg 12%
    15:00 +32°C° 0 mm 4 mps 589 mmHg 11%
    16:00 +33°C° 0 mm 5 mps 589 mmHg 10%
    17:00 +33°C° 0 mm 5 mps 589 mmHg 9%
    18:00 +32°C° 0 mm 6 mps 589 mmHg 10%
    19:00 +30°C° 0 mm 6 mps 589 mmHg 11%
    20:00 +29°C° 0 mm 6 mps 588 mmHg 12%
    21:00 +28°C° 0 mm 5 mps 588 mmHg 13%
    22:00 +27°C° 0 mm 4 mps 588 mmHg 14%
    23:00 +26°C° 0 mm 4 mps 588 mmHg 16%

    Day after tomorrow, 24 August, Thursday

    Time Temperature Precipitation Wind Pressure Humidity
    00:00 +25°C° 0 mm 3 mps 588 mmHg 17%
    01:00 +24°C° 0 mm 3 mps 587 mmHg 19%
    02:00 +23°C° 0 mm 2 mps 587 mmHg 21%
    03:00 +23°C° 0 mm 2 mps 586 mmHg 23%
    04:00 +21°C° 0 mm 2 mps 586 mmHg 24%
    05:00 +21°C° 0 mm 1 mps 586 mmHg 26%
    06:00 +22°C° 0 mm 1 mps 586 mmHg 25%
    07:00 +23°C° 0 mm 1 mps 587 mmHg 25%
    08:00 +24°C° 0 mm 1 mps 587 mmHg 24%
    09:00 +25°C° 0 mm 1 mps 588 mmHg 21%
    10:00 +26°C° 0 mm 1 mps 588 mmHg 18%
    11:00 +28°C° 0 mm 2 mps 589 mmHg 16%
    12:00 +29°C° 0 mm 3 mps 589 mmHg 13%
    13:00 +30°C° 0 mm 4 mps 589 mmHg 11%
    14:00 +32°C° 0 mm 5 mps 589 mmHg 9%
    15:00 +33°C° 0 mm 6 mps 589 mmHg 8%
    16:00 +33°C° 0 mm 6 mps 588 mmHg 7%
    17:00 +33°C° 0 mm 7 mps 588 mmHg 6%
    18:00 +30°C° 0 mm 6 mps 588 mmHg 7%
    19:00 +29°C° 0 mm 6 mps 587 mmHg 7%
    20:00 +28°C° 0 mm 6 mps 587 mmHg 8%
    21:00 +27°C° 0 mm 5 mps 587 mmHg 9%
    22:00 +25°C° 0 mm 4 mps 587 mmHg 10%
    23:00 +24°C° 0 mm 3 mps 587 mmHg 11%

    25 August, Friday

    Time Temperature Precipitation Wind Pressure Humidity
    00:00 +24°C° 0 mm 3 mps 586 mmHg 13%
    01:00 +23°C° 0 mm 2 mps 586 mmHg 15%
    02:00 +21°C° 0 mm 2 mps 585 mmHg 17%
    03:00 +20°C° 0 mm 2 mps 585 mmHg 19%
    04:00 +20°C° 0 mm 2 mps 585 mmHg 21%
    05:00 +19°C° 0 mm 2 mps 584 mmHg 23%
    06:00 +20°C° 0 mm 2 mps 585 mmHg 22%
    07:00 +21°C° 0 mm 2 mps 586 mmHg 22%
    08:00 +23°C° 0 mm 2 mps 586 mmHg 21%
    09:00 +24°C° 0 mm 2 mps 587 mmHg 19%
    10:00 +25°C° 0 mm 2 mps 587 mmHg 17%
    11:00 +27°C° 0 mm 2 mps 587 mmHg 15%
    12:00 +27°C° 0 mm 2 mps 587 mmHg 14%
    13:00 +28°C° 0 mm 2 mps 587 mmHg 12%
    14:00 +29°C° 0 mm 1 mps 587 mmHg 11%
    15:00 +29°C° 0 mm 2 mps 587 mmHg 10%
    16:00 +30°C° 0 mm 2 mps 586 mmHg 10%
    17:00 +30°C° 0 mm 3 mps 586 mmHg 10%
    18:00 +29°C° 0 mm 3 mps 586 mmHg 10%
    19:00 +28°C° 0 mm 3 mps 586 mmHg 11%
    20:00 +27°C° 0 mm 2 mps 586 mmHg 11%
    21:00 +26°C° 0 mm 2 mps 586 mmHg 12%
    22:00 +25°C° 0 mm 2 mps 586 mmHg 14%
    23:00 +24°C° 0 mm 3 mps 586 mmHg 15%

    26 August, Saturday

    Time Temperature Precipitation Wind Pressure Humidity
    00:00 +22°C° 0 mm 3 mps 585 mmHg 16%
    01:00 +21°C° 0 mm 3 mps 585 mmHg 17%
    02:00 +21°C° 0 mm 3 mps 584 mmHg 19%
    03:00 +20°C° 0 mm 3 mps 584 mmHg 19%
    04:00 +19°C° 0 mm 3 mps 584 mmHg 19%
    05:00 +19°C° 0 mm 3 mps 584 mmHg 19%
    06:00 +19°C° 0 mm 3 mps 584 mmHg 18%
    07:00 +20°C° 0 mm 3 mps 585 mmHg 18%
    08:00 +20°C° 0 mm 3 mps 586 mmHg 17%
    09:00 +22°C° 0 mm 3 mps 586 mmHg 17%
    10:00 +24°C° 0 mm 2 mps 586 mmHg 16%
    11:00 +25°C° 0 mm 2 mps 587 mmHg 15%
    12:00 +26°C° 0 mm 2 mps 587 mmHg 14%
    13:00 +27°C° 0 mm 2 mps 586 mmHg 13%
    14:00 +28°C° 0 mm 1 mps 586 mmHg 12%
    15:00 +28°C° 0 mm 2 mps 586 mmHg 12%
    16:00 +28°C° 0 mm 2 mps 586 mmHg 11%
    17:00 +29°C° 0 mm 3 mps 586 mmHg 10%
    18:00 +28°C° 0 mm 2 mps 586 mmHg 12%
    19:00 +27°C° 0 mm 2 mps 586 mmHg 13%
    20:00 +26°C° 0 mm 1 mps 586 mmHg 14%
    21:00 +25°C° 0 mm 2 mps 586 mmHg 15%
    22:00 +25°C° 0 mm 2 mps 586 mmHg 17%
    23:00 +24°C° 0 mm 3 mps 585 mmHg 18%

    27 August, Sunday

    Time Temperature Precipitation Wind Pressure Humidity
    00:00 +22°C° 0 mm 3 mps 585 mmHg 21%
    01:00 +21°C° 0 mm 3 mps 585 mmHg 24%
    02:00 +20°C° 0 mm 2 mps 585 mmHg 27%
    03:00 +20°C° 0 mm 2 mps 585 mmHg 26%
    04:00 +19°C° 0 mm 3 mps 585 mmHg 24%
    05:00 +19°C° 0 mm 3 mps 585 mmHg 23%
    06:00 +20°C° 0 mm 3 mps 585 mmHg 22%
    07:00 +20°C° 0 mm 3 mps 586 mmHg 21%
    08:00 +21°C° 0 mm 3 mps 586 mmHg 20%
    09:00 +23°C° 0 mm 2 mps 586 mmHg 20%
    10:00 +24°C° 0 mm 2 mps 587 mmHg 21%
    11:00 +25°C° 0 mm 2 mps 587 mmHg 21%
    12:00 +26°C° 0 mm 2 mps 587 mmHg 19%
    13:00 +27°C° 0 mm 2 mps 587 mmHg 17%
    14:00 +28°C° 0 mm 2 mps 587 mmHg 15%
    15:00 +28°C° 0 mm 2 mps 587 mmHg 14%
    16:00 +29°C° 0 mm 2 mps 587 mmHg 14%
    17:00 +29°C° 0 mm 3 mps 587 mmHg 13%
    18:00 +28°C° 0 mm 2 mps 587 mmHg 15%
    19:00 +27°C° 0 mm 2 mps 587 mmHg 16%
    20:00 +27°C° 0 mm 2 mps 587 mmHg 18%
    21:00 +26°C° 0 mm 2 mps 587 mmHg 23%
    22:00 +25°C° 0 mm 3 mps 587 mmHg 28%
    23:00 +24°C° 0 mm 3 mps 587 mmHg 34%
    Show more